EHI
0 0 0 0 0 0 0 0 1 2 3 3 4 8 13 17 20 22 25 29 33 37 40 39 37 35 35 34 33 31 29 28 27 24 22 23 24 23 20 17 16 17 16 14
0 0 0 1 1 1 1 2 3 3 3 4 6 10 14 17 20 23 25 29 32 36 39 40 37 34 34 34 32 29 26 26 24 22 20 21 22 21 19 17 15 15 14 13
0 0 0 1 2 3 4 5 5 5 5 6 8 12 15 17 20 23 26 28 31 33 37 38 34 31 31 32 31 26 22 22 22 20 19 18 18 18 18 17 16 14 13 13
0 0 0 1 2 3 4 5 6 5 6 7 10 12 13 14 18 22 26 29 30 32 35 34 29 27 28 28 27 24 21 20 20 20 19 17 16 16 16 17 16 15 13 13
0 0 0 0 1 2 2 4 6 6 6 8 10 10 10 12 17 23 27 30 32 32 32 30 27 27 26 22 21 21 20 19 19 19 19 18 17 16 15 15 14 13 12 12
0 0 0 0 0 1 1 3 8 11 10 10 10 8 8 14 19 23 27 31 33 32 30 28 28 29 26 20 18 18 19 19 19 19 19 19 19 18 15 13 11 10 10 11
0 0 0 0 0 2 3 6 10 14 15 14 11 9 11 17 22 25 28 31 32 31 29 27 28 29 26 21 18 19 19 18 19 19 19 19 19 17 14 11 10 10 10 10
0 1 1 1 2 5 6 8 11 13 14 14 13 11 13 17 21 25 27 29 30 29 28 26 24 25 24 22 21 21 20 18 18 18 18 17 16 14 12 10 9 8 8 9
1 1 1 1 3 5 5 6 7 9 9 10 11 12 12 14 19 21 22 24 26 26 26 23 20 19 20 21 22 22 20 18 17 17 17 15 13 12 10 9 8 7 7 8
0 1 1 1 1 2 3 3 5 5 5 6 8 10 11 12 16 17 17 19 23 25 24 22 19 17 18 20 21 22 20 17 15 14 14 13 11 9 9 8 7 7 8 8
0 0 0 0 0 1 2 3 4 4 4 4 6 8 11 13 14 15 14 15 19 23 24 22 20 19 19 20 20 20 18 15 12 11 12 11 9 7 6 6 5 7 7 7
0 0 0 0 0 1 3 3 3 4 3 3 5 8 11 14 15 14 13 13 16 21 23 22 20 20 21 21 20 19 17 14 11 10 10 8 5 4 4 4 3 3 3 4
1 1 1 0 1 2 3 3 3 3 3 3 4 6 9 12 13 13 12 12 15 19 22 21 18 19 20 20 19 18 15 12 9 8 8 5 2 2 2 2 2 1 1 1
2 2 1 1 2 3 3 3 3 3 3 3 3 4 7 9 10 10 10 10 12 16 19 17 15 15 16 17 17 16 14 11 8 7 6 3 1 2 1 1 1 1 0 0
2 1 2 2 3 3 3 3 2 2 2 1 1 2 4 6 7 8 8 9 10 12 13 13 12 13 14 15 15 14 12 9 7 6 5 3 3 2 1 0 1 1 0 0
1 1 2 2 2 2 2 1 1 1 1 0 0 1 2 5 7 6 6 8 9 9 9 11 12 13 14 15 14 13 11 7 6 6 6 4 3 2 1 0 0 0 0 0
0 1 2 2 1 1 1 0 1 1 1 1 1 1 1 4 6 6 6 7 8 7 7 9 11 13 14 14 13 11 9 6 5 6 6 4 2 1 0 0 0 0 0 0
0 1 1 1 1 0 0 1 2 2 2 2 2 1 1 3 5 5 5 6 6 5 5 6 8 10 12 12 11 9 8 6 5 6 5 3 1 0 0 0 0 0 0 0
0 0 0 0 0 0 0 1 2 2 2 3 3 2 1 2 4 4 4 4 3 2 2 3 4 7 9 9 8 7 7 6 6 5 4 3 1 1 1 0 0 1 1 0
0 0 0 0 0 0 0 1 1 0 1 1 2 1 0 1 2 3 3 3 2 1 1 2 3 5 7 6 4 4 4 4 4 4 3 3 3 2 2 2 2 3 2 1
0 0 0 0 0 0 0 0 0 0 0 0 0 0 0 0 1 1 2 2 2 2 1 2 3 3 3 2 1 2 3 3 3 3 3 3 3 4 4 5 5 5 3 2
0 0 0 0 0 0 0 0 0 0 0 0 0 0 0 0 0 0 1 1 1 1 1 1 1 1 1 0 0 1 2 2 2 2 3 3 4 5 5 5 5 4 3 2
0 0 0 0 0 0 0 0 0 0 0 0 0 0 0 0 0 0 0 0 0 0 0 0 0 0 0 0 1 1 1 2 2 2 2 3 4 4 3 2 2 2 1 1
0 0 1 1 0 0 0 0 0 0 0 0 0 0 0 0 0 0 0 0 0 0 0 0 0 0 0 1 2 2 2 2 2 2 1 1 1 1 1 0 0 0 0 0
0 0 1 1 0 0 0 0 0 0 0 0 0 0 0 0 0 0 0 0 0 0 0 0 0 0 0 1 2 2 2 2 1 1 1 0 0 0 0 0 0 0 0 0
0 0 1 1 0 0 0 0 0 0 0 0 0 0 0 0 0 0 0 0 0 0 1 1 0 0 0 0 1 1 1 1 0 0 0 0 0 0 0 0 0 0 0 0
0 0 0 0 0 0 0 0 0 0 0 0 0 0 0 0 0 0 0 0 0 1 2 2 1 0 0 0 0 0 0 0 0 0 0 0 0 0 0 0 0 0 0 0
Wind_Speed
14 13 13 13 12 12 12 12 11 9 6 4 2 2 3 4 4 3 4 4 3 4 3 3 3 3 3 3 3 4 4 4 3 3 3 3 3 3 3 2 3 2 2 2
14 13 13 14 13 13 14 12 11 9 6 2 2 1 1 3 3 3 3 4 3 3 3 3 2 2 3 3 3 4 4 4 4 4 4 3 3 3 3 3 2 2 2 2
12 11 12 14 12 10 10 8 9 8 4 1 2 3 2 2 2 2 2 3 3 3 3 3 2 2 2 2 2 3 3 4 4 4 4 4 4 4 3 3 2 2 2 2
10 11 14 5 4 6 7 4 3 2 2 1 0 2 2 1 1 1 2 3 3 3 3 3 3 2 2 2 2 3 3 3 4 4 4 4 3 3 3 2 2 2 2 2
7 10 10 5 5 7 6 3 2 2 1 1 1 1 2 3 3 3 2 3 4 4 4 3 3 2 2 1 2 2 3 3 3 3 3 3 3 3 3 2 2 2 2 2
9 9 8 2 4 6 4 3 2 3 2 2 2 1 1 3 3 3 3 3 4 4 4 3 3 2 2 2 1 1 2 2 2 2 2 2 2 2 2 2 2 2 2 2
11 9 4 5 7 4 4 1 4 5 5 4 3 3 3 4 3 2 3 3 3 4 4 3 3 3 2 1 1 0 1 2 2 2 2 2 2 2 2 2 2 2 2 2
8 8 4 5 5 2 3 4 5 5 5 5 4 3 3 3 3 3 3 2 3 3 4 3 3 3 2 1 1 1 1 1 2 2 1 2 2 2 2 2 3 3 3 2
3 2 2 3 3 3 2 3 3 3 3 3 3 3 3 3 2 2 1 2 2 3 3 3 3 2 2 1 1 1 1 1 1 2 1 1 2 2 2 2 2 2 3 3
2 1 2 3 3 3 3 3 2 2 3 3 3 3 2 2 2 1 1 1 2 2 3 2 2 2 1 1 1 1 1 1 1 1 2 1 1 2 2 1 2 1 1 1
4 4 4 3 3 4 4 4 4 4 4 3 3 3 2 1 2 0 1 1 1 2 2 2 2 2 2 1 1 1 1 1 1 1 1 1 1 0 1 1 2 2 1 1
4 3 3 3 3 4 5 4 4 4 4 4 3 3 3 2 2 1 1 0 1 1 2 2 2 1 2 2 2 1 1 1 1 2 2 2 2 1 2 1 3 3 2 2
3 4 3 3 3 3 4 4 4 3 2 3 2 2 3 2 2 1 0 0 1 2 2 2 2 1 1 2 2 2 2 1 2 2 2 2 3 3 2 1 1 1 3 4
3 3 2 3 3 2 3 4 4 3 2 2 2 2 2 2 2 1 1 1 1 2 2 3 2 2 1 2 2 2 2 2 2 2 2 2 3 3 3 3 3 2 3 5
3 3 3 2 2 2 2 3 3 3 2 2 2 2 2 1 1 2 2 1 1 1 2 2 2 1 1 1 2 2 3 2 2 2 2 3 3 3 3 2 2 3 3 3
3 3 3 3 3 2 2 2 2 3 3 2 2 2 2 2 2 2 1 0 1 1 1 1 1 1 1 1 2 2 2 4 4 4 3 3 3 2 2 2 2 2 2 2
3 2 2 2 2 1 2 2 2 3 3 3 3 3 3 2 1 1 2 2 1 1 0 0 0 0 1 1 2 3 3 3 4 4 3 2 2 2 2 2 2 2 2 3
2 1 1 1 1 1 1 2 2 2 3 3 4 4 3 2 2 2 2 1 2 2 1 1 1 1 1 1 2 2 2 2 2 2 2 2 2 2 2 2 1 1 1 3
2 2 2 2 1 1 2 3 3 3 3 3 4 4 4 3 3 3 3 3 3 2 2 2 1 1 1 1 2 2 2 2 2 2 2 2 2 2 2 2 2 1 1 0
2 2 2 2 3 3 3 3 3 3 3 4 4 3 3 3 3 2 2 2 2 3 2 2 1 1 1 1 3 2 2 3 3 2 2 2 2 2 2 2 1 1 1 1
2 3 3 3 3 3 3 3 3 3 3 3 2 3 3 3 3 3 2 2 3 3 2 1 1 1 2 2 4 3 2 2 3 2 2 3 3 2 2 2 2 2 2 2
3 2 3 3 3 3 3 3 3 3 3 3 3 3 3 3 3 3 3 3 3 3 2 2 2 3 3 4 3 2 3 3 3 2 2 2 3 3 2 2 2 2 2 2
2 3 3 2 2 2 3 3 3 2 3 2 2 2 3 3 3 3 3 3 3 3 3 3 4 4 4 4 4 3 3 3 3 2 2 2 2 2 2 2 2 2 2 2
2 2 2 1 1 1 2 2 3 2 2 2 2 2 2 2 2 2 2 2 2 2 3 3 3 3 4 3 3 3 3 4 3 3 2 2 2 2 2 2 2 2 1 2
1 1 2 2 1 0 1 1 1 1 1 1 2 1 1 1 2 2 2 3 2 2 2 2 1 2 3 3 3 3 4 4 4 4 3 2 2 2 2 2 2 2 2 2
1 1 1 1 1 1 1 1 1 1 1 1 2 2 1 1 2 2 2 2 3 2 2 2 1 2 2 2 3 3 3 3 3 3 3 3 3 3 2 2 3 3 3 3
1 0 0 0 1 1 1 1 1 1 1 1 2 2 2 2 1 2 2 2 3 2 2 2 2 2 2 2 3 3 3 3 3 3 3 3 3 3 3 3 2 2 2 2
Wind_Direction
265 270 275 268 260 255 255 257 262 265 242 220 229 199 132 132 131 135 124 117 114 115 108 122 128 130 138 141 134 136 141 146 155 154 160 167 175 168 168 182 192 199 206 224
266 262 265 269 262 256 252 250 252 258 266 291 301 351 132 138 141 130 128 127 120 109 114 114 121 133 128 130 133 137 145 156 159 158 161 168 177 174 173 181 190 197 211 216
268 266 261 253 261 257 256 250 246 253 254 249 328 341 1 77 123 158 132 115 108 106 104 96 92 101 124 133 125 140 150 157 168 177 174 173 183 173 174 184 194 204 218 205
266 268 256 250 262 260 246 250 249 232 185 199 310 23 27 13 113 111 122 118 105 104 106 88 75 84 101 111 131 147 154 171 184 176 169 171 179 173 176 182 192 206 211 204
258 257 255 254 272 278 263 247 283 272 246 53 60 46 43 35 59 66 65 89 101 120 120 101 97 96 97 94 146 166 172 177 177 172 163 167 174 177 176 182 196 207 201 203
257 261 263 292 315 318 287 229 1 21 33 29 5 304 49 47 53 61 55 77 101 114 121 120 110 107 118 128 138 162 173 161 147 153 156 155 165 166 169 179 191 199 187 188
251 257 268 326 332 320 256 17 26 32 38 37 11 24 46 43 47 63 80 89 107 121 125 118 113 111 108 90 62 83 124 144 145 137 145 150 148 150 163 187 188 185 183 189
245 248 256 354 341 352 37 42 36 30 32 34 29 53 48 37 40 40 71 82 99 109 109 109 116 122 114 86 43 46 77 101 120 122 138 141 147 173 186 196 195 192 193 197
296 274 45 25 17 47 55 38 25 17 20 25 24 32 42 33 29 31 84 88 94 108 110 108 108 112 119 89 52 39 59 82 108 122 127 136 169 192 196 203 215 204 195 196
293 269 358 356 17 357 9 350 349 10 351 354 4 14 30 30 4 33 99 98 100 120 125 126 129 137 126 115 99 94 76 79 128 156 154 148 179 198 196 207 221 210 193 196
271 274 297 325 340 338 345 343 347 354 346 351 353 356 7 353 329 265 138 128 155 154 155 159 158 158 150 146 143 164 159 158 177 187 160 143 170 254 209 195 198 179 170 176
276 283 296 298 314 331 332 334 329 333 336 341 342 341 348 343 332 311 87 94 230 187 173 161 164 169 165 162 162 180 185 201 218 210 174 174 189 175 40 152 148 144 142 154
307 316 311 309 312 312 303 306 313 305 306 325 333 331 331 336 345 9 56 276 239 199 176 166 167 168 174 180 192 201 212 213 235 228 202 202 204 195 176 165 170 179 179 173
327 313 291 292 291 287 289 303 301 295 307 316 313 321 337 355 1 349 284 258 243 202 186 178 176 174 187 194 207 207 214 226 248 236 231 227 222 218 210 198 185 199 211 198
289 270 264 268 272 276 280 293 292 299 305 307 318 326 327 319 314 300 290 256 195 188 198 187 179 192 199 203 221 226 224 231 248 253 241 241 239 233 232 217 190 165 155 174
274 270 255 251 256 279 288 288 303 316 327 333 327 326 311 295 281 283 314 348 165 202 221 210 190 235 214 207 228 234 240 242 256 260 245 242 247 247 251 233 207 179 170 157
257 250 247 261 267 269 274 309 338 343 350 350 338 331 323 320 337 20 21 14 17 21 295 188 159 201 213 251 253 246 247 241 247 259 255 255 262 263 265 259 235 199 186 172
239 247 259 289 355 355 355 0 11 12 4 353 352 345 343 350 3 17 25 41 32 32 23 30 24 2 303 284 290 280 272 257 246 263 281 282 269 268 271 268 262 260 184 180
77 69 67 68 58 33 32 34 26 19 12 7 3 2 359 360 12 15 21 26 12 1 4 11 16 324 315 350 316 280 289 291 279 275 277 275 265 261 265 272 267 262 252 201
75 67 65 65 56 43 39 28 26 29 22 14 8 2 357 355 3 15 19 12 354 353 358 358 336 318 326 348 320 296 296 297 296 295 293 281 275 276 273 274 283 309 304 260
61 63 64 67 58 42 29 20 24 28 23 24 21 4 354 3 11 12 2 345 359 2 343 326 308 323 328 319 281 272 280 287 289 291 296 299 293 284 285 287 285 278 278 278
45 53 49 50 46 34 18 11 14 19 30 27 18 16 6 5 2 2 357 339 347 4 342 342 343 353 345 316 289 290 288 289 292 291 291 294 300 301 296 291 288 287 281 278
40 45 46 37 34 24 13 12 23 28 28 15 5 12 6 356 346 346 348 350 343 355 344 348 3 3 343 314 312 311 307 301 296 291 278 275 281 287 287 285 283 282 286 292
53 44 29 18 34 33 21 14 16 21 19 359 1 15 354 338 338 332 335 2 3 345 335 0 8 349 319 312 319 317 310 311 312 301 290 284 287 290 286 282 281 278 285 284
47 37 27 354 335 25 53 6 349 341 328 340 353 9 344 340 328 333 343 335 334 316 317 343 338 300 300 316 323 326 324 326 328 329 330 331 318 311 316 316 312 304 293 283
72 79 73 323 336 330 299 272 291 314 314 325 346 351 353 346 321 305 308 321 337 340 326 329 324 292 298 317 320 324 318 316 318 321 331 337 335 327 326 321 312 312 309 306
171 134 140 313 330 320 315 318 324 324 335 343 336 332 325 318 320 333 342 341 335 330 324 318 324 321 327 331 328 335 335 331 332 328 327 332 330 330 331 320 316 318 319 320